ORBCOMM FM109

Last updated on Wed Sep 23 2026 00:03:43 GMT+0000 (Coordinated Universal Time)

1 40086U 14040A 26265.27942779 .00000186 00000+0 75490-4 0 9998 2 40086 47.0048 352.4132 0002140 285.0276 75.0373 14.58923492648527
UTC large
Height (km)
Speed (km/s)
/
Latitude / Longitude
Inclination (degrees)
Orbital Period (minutes)
Azimuth
Elevation
Range (km)
Doppler Factor

Next 0 passes for location: London (51.5072 / 0.1276)

No passes found over London.
ORBCOMM FM109